Temp
-13 -13 -14 -14 -15 -15 -15 -14 -14 -14 -14 -14 -13 -13 -13 -13 -13 -13 -13 -13 -13 -13 -13 -12 -12 -12 -11 -13 -12 -11 -11 -11 -12 -12 -12 -12 -11 -11 -11 -12 -12 -11 -12
-13 -14 -14 -14 -14 -14 -14 -14 -14 -14 -14 -14 -13 -13 -13 -13 -12 -12 -13 -13 -13 -13 -13 -13 -12 -12 -12 -12 -13 -12 -12 -11 -11 -12 -12 -12 -12 -11 -11 -12 -12 -12 -12
-14 -14 -14 -15 -14 -14 -14 -14 -14 -14 -13 -13 -14 -14 -14 -13 -13 -13 -13 -12 -12 -12 -13 -13 -13 -13 -13 -12 -13 -12 -12 -12 -12 -12 -12 -12 -12 -11 -12 -12 -12 -12 -12
-14 -14 -14 -15 -15 -15 -15 -14 -15 -14 -14 -14 -15 -15 -16 -17 -17 -16 -15 -14 -14 -12 -12 -13 -13 -13 -13 -13 -13 -14 -13 -12 -12 -12 -12 -12 -12 -12 -12 -11 -12 -12 -12
-15 -15 -15 -15 -15 -15 -15 -15 -15 -15 -16 -18 -18 -17 -17 -16 -16 -16 -16 -17 -16 -15 -14 -12 -14 -13 -14 -13 -14 -15 -14 -12 -12 -13 -12 -12 -12 -12 -12 -11 -12 -12 -12
-15 -16 -16 -16 -15 -15 -15 -15 -16 -18 -17 -17 -17 -17 -17 -17 -16 -16 -16 -16 -16 -16 -16 -15 -14 -13 -13 -14 -13 -15 -15 -14 -14 -13 -12 -12 -12 -13 -12 -12 -11 -11 -12
-17 -17 -16 -16 -16 -15 -16 -16 -18 -18 -17 -17 -18 -18 -18 -18 -18 -18 -17 -17 -16 -17 -17 -16 -16 -14 -13 -13 -14 -14 -16 -15 -15 -14 -13 -13 -13 -13 -13 -13 -12 -12 -11
-17 -17 -16 -16 -16 -16 -16 -17 -19 -18 -17 -18 -18 -18 -18 -19 -19 -19 -19 -18 -18 -17 -17 -17 -16 -15 -14 -14 -13 -15 -16 -16 -15 -14 -13 -13 -13 -13 -13 -13 -12 -12 -12
-17 -17 -16 -16 -16 -16 -17 -18 -19 -17 -18 -18 -18 -18 -19 -20 -20 -21 -20 -19 -18 -18 -17 -17 -16 -16 -13 -13 -13 -15 -16 -16 -15 -15 -14 -13 -13 -13 -13 -13 -13 -12 -12
-17 -17 -17 -17 -17 -16 -17 -18 -19 -17 -18 -18 -18 -18 -19 -20 -21 -22 -21 -20 -19 -18 -17 -17 -17 -16 -15 -14 -12 -15 -15 -15 -15 -15 -14 -14 -13 -13 -13 -13 -13 -12 -12
-18 -18 -17 -16 -17 -16 -17 -18 -19 -18 -18 -18 -18 -18 -19 -20 -20 -21 -20 -20 -19 -18 -18 -17 -17 -15 -15 -15 -13 -13 -13 -15 -16 -15 -14 -14 -14 -13 -14 -14 -14 -13 -13
-18 -17 -17 -17 -17 -17 -17 -19 -19 -19 -18 -18 -18 -18 -18 -19 -20 -19 -19 -19 -18 -17 -17 -18 -18 -17 -15 -15 -15 -13 -13 -15 -16 -15 -14 -15 -14 -14 -14 -14 -14 -14 -13
-18 -18 -17 -17 -17 -17 -18 -18 -19 -19 -19 -17 -18 -18 -18 -18 -19 -19 -18 -17 -17 -17 -19 -17 -16 -17 -16 -15 -15 -13 -11 -15 -15 -15 -15 -16 -14 -14 -14 -15 -14 -14 -14
-18 -18 -18 -18 -17 -17 -18 -18 -19 -19 -19 -18 -17 -17 -18 -18 -18 -17 -17 -17 -17 -17 -17 -16 -16 -15 -14 -15 -14 -14 -14 -15 -15 -15 -16 -16 -15 -14 -15 -15 -15 -14 -14
-19 -19 -18 -18 -18 -18 -18 -18 -19 -19 -19 -19 -17 -17 -17 -18 -18 -18 -18 -18 -17 -17 -16 -15 -16 -15 -15 -14 -14 -14 -14 -15 -16 -15 -15 -14 -15 -15 -15 -15 -15 -14 -14
-19 -19 -18 -18 -18 -18 -18 -18 -19 -19 -19 -20 -18 -17 -17 -18 -18 -18 -19 -18 -17 -17 -16 -17 -16 -16 -15 -14 -15 -15 -14 -15 -15 -15 -14 -14 -15 -15 -15 -14 -14 -14 -14
-20 -19 -19 -18 -18 -18 -18 -18 -18 -19 -19 -19 -19 -17 -17 -17 -17 -18 -18 -18 -18 -18 -16 -16 -16 -15 -15 -15 -15 -15 -15 -15 -14 -14 -14 -14 -15 -15 -15 -15 -14 -14 -14
-20 -20 -19 -19 -19 -19 -19 -19 -19 -19 -19 -19 -19 -19 -18 -17 -17 -17 -17 -17 -17 -18 -17 -16 -17 -15 -15 -15 -15 -14 -15 -14 -14 -15 -15 -15 -15 -15 -15 -14 -14 -14 -14
-20 -20 -20 -19 -19 -19 -19 -19 -19 -19 -20 -20 -19 -20 -19 -18 -17 -17 -17 -17 -17 -17 -17 -16 -16 -16 -15 -15 -15 -15 -15 -14 -15 -15 -15 -15 -15 -15 -14 -14 -14 -14 -13
-20 -20 -20 -20 -20 -19 -19 -19 -19 -19 -20 -20 -20 -19 -20 -19 -18 -18 -17 -17 -17 -16 -16 -17 -16 -16 -16 -15 -15 -16 -16 -15 -15 -15 -15 -15 -15 -14 -14 -14 -14 -14 -14
-21 -21 -21 -20 -20 -20 -20 -20 -19 -20 -20 -20 -20 -19 -19 -20 -19 -18 -18 -18 -17 -18 -16 -16 -16 -15 -14 -14 -14 -15 -15 -15 -15 -14 -15 -14 -14 -14 -14 -14 -14 -14 -14
-21 -21 -21 -21 -21 -20 -21 -21 -20 -20 -20 -21 -20 -19 -19 -20 -20 -19 -19 -18 -18 -18 -17 -16 -16 -16 -16 -15 -15 -15 -14 -15 -14 -15 -15 -15 -14 -14 -14 -14 -14 -14 -14
-22 -22 -22 -22 -22 -22 -22 -22 -22 -23 -22 -22 -21 -20 -20 -19 -20 -19 -19 -19 -18 -17 -18 -17 -17 -17 -17 -17 -16 -15 -15 -15 -15 -15 -15 -15 -15 -14 -15 -15 -15 -15 -15
-23 -23 -23 -24 -24 -24 -24 -25 -25 -25 -24 -23 -22 -21 -20 -20 -20 -20 -20 -19 -17 -17 -17 -17 -17 -17 -17 -17 -17 -16 -16 -15 -15 -15 -15 -15 -15 -15 -15 -15 -16 -15 -16
-25 -25 -26 -26 -26 -26 -26 -26 -26 -26 -25 -24 -23 -22 -21 -21 -20 -20 -20 -20 -20 -20 -19 -19 -18 -17 -17 -17 -17 -17 -17 -17 -16 -15 -16 -16 -16 -16 -16 -16 -16 -16 -16
-27 -28 -28 -28 -28 -28 -28 -27 -27 -26 -25 -25 -24 -23 -23 -22 -22 -21 -21 -20 -20 -20 -19 -19 -19 -19 -19 -19 -20 -19 -19 -18 -18 -16 -16 -16 -17 -16 -16 -16 -16 -17 -16
Height
5757 5753 5753 5751 5750 5748 5746 5743 5740 5736 5732 5729 5727 5726 5727 5726 5727 5727 5731 5733 5737 5739 5740 5746 5751 5753 5757 5761 5764 5767 5770 5772 5773 5775 5777 5780 5782 5781 5783 5783 5784 5784 5784
5748 5747 5744 5741 5739 5737 5734 5730 5724 5719 5712 5707 5702 5698 5698 5699 5702 5705 5709 5713 5718 5723 5726 5731 5738 5741 5745 5750 5754 5756 5760 5763 5766 5767 5769 5773 5776 5776 5777 5778 5779 5779 5780
5739 5737 5735 5731 5727 5723 5718 5713 5705 5698 5690 5682 5674 5668 5666 5668 5670 5674 5679 5684 5691 5702 5707 5715 5718 5723 5728 5736 5744 5747 5749 5753 5756 5760 5762 5764 5768 5771 5772 5772 5773 5774 5775
5731 5727 5724 5721 5715 5709 5703 5695 5686 5676 5667 5656 5645 5639 5638 5639 5639 5642 5647 5655 5662 5674 5684 5691 5700 5703 5712 5720 5731 5738 5739 5742 5747 5751 5754 5756 5760 5764 5766 5767 5767 5769 5770
5718 5718 5713 5709 5702 5696 5688 5678 5668 5653 5641 5631 5624 5621 5619 5618 5618 5618 5622 5630 5637 5644 5654 5665 5675 5681 5691 5705 5714 5723 5728 5732 5736 5741 5743 5747 5750 5755 5759 5761 5762 5763 5764
5708 5706 5701 5697 5691 5683 5672 5660 5648 5636 5627 5620 5610 5602 5597 5593 5594 5595 5598 5607 5612 5620 5627 5638 5649 5660 5658 5681 5697 5709 5716 5722 5726 5729 5734 5737 5742 5748 5751 5753 5756 5757 5758
5698 5696 5692 5687 5680 5670 5658 5645 5632 5623 5614 5604 5593 5586 5580 5573 5567 5568 5572 5580 5588 5597 5605 5614 5626 5634 5638 5645 5674 5692 5702 5710 5715 5719 5727 5728 5731 5736 5743 5746 5749 5749 5752
5689 5684 5680 5674 5667 5657 5645 5631 5622 5611 5601 5591 5584 5576 5564 5556 5546 5541 5542 5549 5561 5574 5585 5594 5603 5618 5626 5648 5664 5674 5686 5696 5701 5708 5714 5720 5723 5725 5732 5738 5741 5743 5746
5680 5675 5670 5663 5657 5648 5633 5621 5613 5603 5590 5582 5577 5568 5553 5539 5527 5517 5519 5527 5539 5551 5565 5576 5582 5593 5618 5620 5633 5660 5670 5681 5689 5697 5702 5709 5715 5716 5720 5726 5732 5736 5741
5668 5663 5659 5655 5646 5635 5624 5613 5604 5594 5582 5574 5569 5561 5548 5531 5516 5506 5509 5517 5527 5536 5549 5560 5571 5584 5600 5608 5604 5637 5658 5665 5673 5683 5689 5696 5703 5707 5711 5717 5720 5724 5730
5659 5655 5652 5645 5636 5625 5615 5604 5599 5588 5576 5569 5562 5555 5544 5532 5518 5510 5511 5515 5521 5530 5544 5557 5564 5574 5580 5595 5596 5618 5629 5649 5660 5670 5678 5685 5692 5697 5701 5706 5713 5716 5719
5653 5648 5642 5635 5627 5618 5607 5597 5592 5582 5572 5563 5558 5551 5546 5537 5527 5518 5516 5518 5524 5536 5548 5554 5556 5567 5575 5579 5596 5616 5615 5632 5647 5659 5669 5675 5682 5687 5691 5697 5704 5709 5709
5644 5638 5633 5628 5621 5612 5602 5591 5586 5577 5567 5558 5555 5550 5544 5538 5533 5528 5525 5525 5530 5538 5546 5547 5557 5562 5568 5584 5596 5598 5588 5622 5638 5650 5656 5664 5670 5676 5681 5687 5693 5698 5700
5632 5630 5626 5622 5613 5604 5595 5586 5579 5573 5564 5554 5550 5545 5542 5537 5532 5530 5531 5532 5532 5535 5538 5542 5549 5551 5560 5569 5577 5589 5587 5611 5629 5638 5645 5653 5659 5666 5670 5674 5681 5687 5690
5625 5622 5619 5614 5606 5598 5589 5580 5573 5567 5560 5551 5545 5543 5541 5536 5531 5526 5524 5525 5528 5530 5530 5534 5536 5546 5556 5571 5579 5588 5597 5606 5616 5626 5636 5643 5648 5655 5661 5663 5668 5673 5678
5618 5613 5610 5606 5599 5591 5584 5576 5568 5563 5557 5549 5541 5539 5539 5537 5531 5530 5527 5526 5525 5524 5527 5533 5539 5545 5552 5564 5574 5587 5594 5600 5606 5617 5625 5630 5637 5643 5648 5653 5656 5661 5664
5608 5603 5600 5597 5591 5584 5578 5572 5564 5558 5553 5548 5540 5535 5535 5535 5532 5530 5530 5529 5528 5526 5526 5531 5539 5546 5550 5562 5572 5580 5587 5591 5600 5607 5612 5618 5625 5631 5637 5642 5645 5649 5651
5598 5594 5590 5586 5582 5576 5570 5565 5558 5551 5547 5544 5539 5532 5527 5526 5528 5525 5527 5528 5527 5526 5525 5529 5537 5544 5542 5549 5561 5569 5574 5579 5584 5592 5603 5609 5617 5622 5627 5631 5634 5637 5638
5588 5584 5580 5577 5572 5567 5561 5557 5553 5546 5540 5538 5537 5530 5525 5521 5522 5522 5521 5521 5521 5525 5529 5531 5534 5538 5545 5549 5555 5555 5567 5564 5573 5582 5595 5602 5608 5614 5617 5619 5623 5624 5624
5578 5573 5569 5566 5561 5556 5552 5548 5545 5539 5534 5531 5530 5526 5520 5517 5515 5514 5515 5515 5517 5520 5524 5527 5529 5534 5541 5545 5549 5551 5556 5562 5570 5578 5584 5591 5597 5602 5605 5608 5609 5609 5610
5566 5562 5557 5554 5550 5546 5540 5536 5533 5531 5525 5523 5523 5521 5516 5512 5511 5511 5510 5509 5511 5513 5515 5519 5523 5526 5532 5538 5545 5550 5553 5556 5562 5569 5575 5580 5586 5590 5589 5593 5596 5598 5597
5554 5550 5546 5540 5536 5533 5528 5523 5519 5518 5516 5513 5513 5514 5511 5508 5506 5506 5506 5507 5507 5508 5510 5512 5515 5519 5527 5531 5537 5540 5546 5552 5558 5560 5563 5569 5572 5577 5580 5582 5583 5584 5587
5541 5536 5531 5525 5520 5517 5514 5510 5506 5504 5504 5503 5503 5504 5504 5502 5500 5499 5500 5500 5500 5502 5501 5507 5513 5517 5522 5525 5529 5532 5538 5542 5546 5552 5554 5559 5561 5564 5567 5568 5571 5573 5577
5527 5521 5515 5510 5505 5501 5499 5497 5495 5494 5494 5494 5494 5494 5495 5496 5495 5491 5493 5494 5495 5497 5502 5505 5508 5513 5516 5519 5521 5525 5528 5531 5538 5540 5544 5547 5551 5552 5556 5557 5561 5565 5567
5513 5508 5503 5498 5494 5490 5488 5487 5486 5485 5486 5485 5485 5486 5486 5488 5489 5490 5488 5489 5491 5494 5497 5500 5502 5505 5508 5509 5511 5516 5519 5525 5528 5530 5533 5536 5540 5542 5545 5548 5551 5554 5556
5503 5499 5494 5491 5488 5484 5482 5480 5480 5479 5478 5478 5477 5478 5479 5481 5482 5484 5485 5487 5489 5491 5492 5493 5496 5499 5501 5503 5505 5508 5511 5515 5518 5519 5523 5525 5528 5531 5535 5537 5539 5542 5545
Wind_Speed
41 43 42 40 39 41 43 46 49 53 57 60 61 62 62 63 66 66 65 62 59 55 57 52 47 45 41 36 36 33 34 34 35 30 25 27 28 26 21 17 16 16 14
42 42 42 42 44 46 48 51 55 58 63 66 69 71 70 70 70 68 68 69 70 65 61 58 53 49 47 42 40 36 35 37 36 36 29 25 28 29 24 18 17 15 13
41 41 41 42 43 46 51 55 61 65 69 75 78 81 79 76 77 78 76 76 74 73 71 65 62 59 56 49 43 42 37 39 37 39 34 27 28 29 27 22 18 17 17
44 43 44 44 45 48 55 61 66 71 76 81 74 69 63 57 59 61 66 67 75 77 78 74 69 68 64 57 47 45 42 41 38 37 39 32 30 28 29 25 22 21 19
44 44 46 46 49 52 58 64 72 75 69 51 50 48 57 59 54 59 56 57 58 81 83 83 77 73 79 63 58 50 46 43 41 37 41 38 33 28 29 29 27 25 22
44 44 44 47 49 55 61 69 70 59 52 52 58 51 50 52 53 54 56 56 63 61 81 92 87 90 70 76 63 53 49 45 39 39 43 40 34 28 30 31 30 29 27
43 44 44 46 51 56 63 69 58 53 50 53 47 48 51 55 57 58 58 59 59 61 66 80 96 98 72 87 69 62 52 48 44 39 42 41 36 32 31 32 31 31 30
44 45 45 47 53 58 65 63 51 52 57 42 42 47 53 52 50 52 53 60 67 60 64 66 87 97 96 57 72 70 57 52 49 41 46 46 39 35 33 33 34 32 31
42 44 45 48 53 56 61 55 49 50 58 38 38 41 48 46 40 41 46 47 58 69 66 67 63 94 78 78 72 67 60 56 52 44 46 47 43 39 34 34 35 35 31
42 43 46 49 51 53 60 50 50 51 51 41 40 39 44 41 32 20 22 35 50 66 70 71 63 84 89 80 62 72 66 60 55 48 49 48 44 42 36 33 36 35 32
43 45 46 48 49 52 59 48 47 49 51 41 40 38 37 38 27 15 21 29 43 57 62 57 55 55 73 95 61 74 72 62 56 50 53 46 44 43 37 34 35 33 33
43 43 44 46 50 52 56 50 42 45 48 41 38 37 32 32 22 11 9 18 30 47 42 41 55 52 79 70 65 70 61 65 54 51 56 46 45 43 38 35 34 34 35
40 40 43 46 49 50 53 49 41 44 46 42 37 34 33 27 15 14 2 14 24 29 39 33 27 56 76 77 84 66 40 59 54 56 49 47 49 47 40 34 35 36 37
38 40 42 44 47 48 50 50 41 44 47 41 36 33 28 29 22 17 8 8 12 16 19 22 25 31 62 62 65 46 54 59 59 55 51 52 51 45 39 36 36 40 43
41 41 40 41 43 46 47 49 42 43 46 37 36 31 28 25 27 25 21 13 6 14 5 27 24 31 37 70 38 53 57 59 57 54 54 49 43 39 38 38 38 42 43
41 40 39 40 41 43 45 46 43 39 41 39 36 32 28 23 24 25 26 22 15 8 9 23 28 35 49 71 51 60 58 56 57 52 54 50 43 39 39 36 38 41 45
39 39 39 40 40 42 44 45 42 37 37 37 36 33 29 27 25 23 24 24 23 19 10 24 20 20 45 57 50 55 57 58 59 55 54 47 40 48 47 40 40 44 46
40 39 39 39 40 41 43 42 43 40 36 35 32 33 36 32 31 27 24 27 22 15 15 22 35 22 12 52 64 59 52 60 63 58 56 50 51 52 45 43 44 45 45
40 40 40 40 41 42 43 42 40 42 38 35 31 31 29 30 30 30 33 33 28 22 17 17 18 17 21 19 46 28 33 42 48 58 56 51 52 50 49 50 45 49 45
41 42 42 43 43 43 44 44 41 40 40 35 33 29 30 23 23 24 21 26 31 31 31 29 26 23 23 26 25 27 24 26 39 45 50 52 48 50 49 46 44 48 51
43 44 46 47 46 46 47 48 46 38 40 36 33 29 28 26 20 20 23 22 24 22 25 29 28 28 30 33 34 35 33 34 34 35 41 41 46 42 45 47 44 41 50
46 48 49 50 50 49 49 49 48 43 39 38 33 33 29 26 20 16 20 25 28 21 22 24 26 23 23 24 32 37 37 36 44 35 37 38 36 39 46 46 53 51 49
50 52 52 52 52 51 49 48 47 45 39 36 33 34 31 24 22 17 16 17 22 23 21 21 19 20 22 25 24 29 31 31 39 42 40 46 43 45 43 40 36 31 36
52 52 52 50 49 47 44 42 40 37 32 32 31 32 30 25 23 19 16 18 19 22 28 27 27 27 27 26 24 25 30 38 40 36 33 31 35 33 32 37 30 27 26
46 44 41 38 36 33 31 28 27 27 27 29 29 29 29 26 24 20 18 19 18 16 18 19 19 28 27 28 26 29 31 27 37 37 33 28 28 29 30 31 35 32 27
28 28 28 26 24 22 21 21 22 23 26 25 24 26 25 24 24 23 19 19 23 21 20 18 20 21 22 20 21 21 21 22 26 37 34 31 33 39 40 33 32 31 35
Wind_Direction
301 297 297 292 289 286 285 285 283 283 282 279 277 273 267 268 263 260 254 252 253 252 250 248 238 242 238 235 234 238 250 256 261 260 259 258 254 247 251 248 253 253 260
294 294 291 290 288 287 287 290 291 291 291 289 288 283 277 272 265 261 257 252 247 248 249 249 245 239 240 235 233 234 241 250 255 259 255 260 256 252 247 242 242 253 253
296 295 295 293 293 296 297 297 296 295 294 290 289 285 282 275 271 266 259 252 247 242 244 244 244 240 239 237 232 233 235 244 249 255 256 256 258 255 248 243 241 243 248
299 299 299 299 303 303 302 300 301 300 297 295 286 280 277 272 271 268 255 244 240 240 237 236 239 241 236 234 230 232 234 238 244 249 255 252 255 256 253 247 244 244 246
301 305 303 306 306 305 305 305 305 304 304 305 297 286 281 276 266 259 253 250 240 232 225 229 225 237 234 228 228 230 232 234 239 243 248 249 251 256 258 249 247 246 248
302 305 304 306 306 309 309 311 311 306 311 305 295 292 290 287 279 265 252 244 243 234 233 223 222 230 228 221 224 224 229 232 234 236 242 244 247 250 255 258 252 246 245
299 302 303 306 310 312 313 313 308 310 315 308 305 308 301 294 284 269 255 242 237 231 231 231 225 224 235 224 218 218 224 229 232 234 238 239 239 241 246 253 254 252 250
297 302 307 310 314 314 316 315 308 312 320 311 314 315 310 301 288 271 259 242 228 223 224 229 230 222 224 226 212 214 217 227 231 231 235 238 236 236 242 248 252 252 250
302 304 306 312 312 315 320 310 311 319 320 322 324 321 325 316 303 279 254 240 227 222 217 221 229 227 212 223 210 212 212 219 226 227 229 234 235 235 236 247 251 253 248
301 305 308 308 311 319 321 307 314 321 322 321 323 321 331 331 328 282 231 230 224 220 212 218 227 221 213 214 219 208 211 217 220 221 224 229 230 235 235 239 251 257 259
301 300 302 309 314 320 324 308 313 321 323 315 321 325 323 337 340 324 249 225 220 216 216 222 233 208 226 212 218 196 210 212 216 218 225 223 227 233 234 237 246 252 258
293 296 304 311 314 319 325 312 312 323 324 312 316 324 334 339 355 10 297 236 223 217 218 234 237 227 217 223 222 203 232 206 211 217 224 222 227 231 233 234 245 249 253
292 302 308 310 311 316 325 318 307 317 319 318 307 317 324 336 351 11 1 213 214 221 227 194 213 226 224 212 220 217 193 198 210 219 219 222 227 229 230 236 242 247 251
299 300 303 305 310 315 325 321 306 314 321 323 304 308 318 322 329 334 322 343 250 242 256 225 232 222 218 204 220 238 185 193 210 217 219 224 229 233 230 234 242 248 253
293 294 299 303 309 315 325 322 310 311 319 316 308 295 306 311 315 320 327 330 306 337 271 241 248 228 220 210 211 186 195 196 204 216 225 230 233 235 240 242 241 245 251
288 293 299 303 308 314 320 318 313 304 312 323 316 288 293 297 301 306 322 321 331 347 192 233 236 233 216 215 220 217 211 207 212 218 226 231 231 237 240 245 245 249 251
289 294 298 301 306 311 316 317 310 301 303 317 317 300 278 285 283 288 289 293 307 323 197 202 210 236 231 216 211 209 217 218 223 216 227 224 235 243 244 247 253 255 256
291 294 297 300 303 307 311 313 309 302 297 304 317 311 293 290 269 273 276 284 283 287 295 216 214 224 191 216 226 225 229 239 221 218 229 235 235 244 249 251 256 264 264
290 293 295 298 301 305 308 307 306 301 293 290 303 313 301 291 272 269 273 279 267 254 240 242 256 257 243 220 213 217 242 214 207 219 228 233 238 244 247 253 259 271 257
291 295 298 299 301 302 302 302 300 294 288 285 289 300 309 297 288 287 284 275 265 261 249 248 250 250 244 256 244 248 248 233 217 229 239 236 240 243 248 251 262 265 267
295 296 297 297 298 299 298 297 295 291 284 282 279 286 299 306 288 284 283 273 268 276 261 248 245 246 241 238 240 238 243 240 237 236 235 234 234 244 248 240 254 260 259
294 294 294 295 296 295 292 290 288 286 277 273 274 274 284 295 294 284 273 264 266 255 256 252 253 247 240 237 233 235 234 242 231 234 240 231 233 246 247 263 254 254 246
294 294 294 294 293 290 287 284 282 281 274 266 269 268 272 280 285 278 272 262 253 249 254 241 231 213 218 233 241 230 219 241 229 246 245 237 235 238 241 241 227 228 226
294 295 295 294 292 290 287 284 281 282 276 268 262 266 267 267 274 275 275 269 245 238 233 226 224 221 206 199 196 199 222 220 216 210 214 211 217 222 226 219 226 243 246
297 297 298 298 295 293 288 282 277 278 270 267 264 260 261 263 265 262 262 263 259 250 253 252 234 226 230 230 209 206 217 219 217 209 213 211 222 219 232 239 248 257 250
306 309 307 307 304 299 290 278 275 276 270 267 264 256 251 257 259 260 256 251 245 246 249 250 249 252 249 242 249 253 249 244 239 229 234 236 236 229 232 245 246 255 256